[[{"header":{"parameterUnit":"m.s-1","parameterCategory":1,"la1":30.2991,"la2":30.254,"lo1":-89.0895,"lo2":-89.0444,"dy":0.0017,"dx":0.0017,"nx":28,"ny":28,"refTime":"2025-06-21T03:00:00:Z","depth":0,"parameterNumber":2,"parameterNumberName":"U-component_of_WINDS"},"data":[0,0,0,0,0,0,0,0,0,0,0,0,0,0,0,0,0,0,0,0,0,0,0,0,0,0,0,0,0,0,0,0,0,0,0,0,0,0,0,0,0,0,0,0,0,0,0,0,0,0,0,0,0,0,0,0,0,0,2.3247,2.3248,0,2.3314,2.3315,2.3316,2.3287,2.3285,2.3283,2.3282,2.335,2.3353,2.3357,0,0,0,0,0,0,0,0,0,0,0,0,0,2.3092,2.3095,2.3247,2.3248,2.3249,2.3314,2.3315,2.3316,2.3287,2.3285,2.3283,2.3281,2.3349,2.3353,2.3357,0,0,0,0,0,0,0,0,0,0,0,0,0,2.3159,2.3096,2.3247,2.3242,2.3242,2.3314,2.3315,2.3316,2.3287,2.3285,2.3282,2.328,2.3348,2.3353,2.3357,2.3437,0,0,2.3373,2.3375,0,0,0,0,0,0,0,0,2.3156,2.3165,2.3242,2.3243,2.3243,2.3289,2.3285,2.3357,2.3288,2.327,2.3282,2.3279,2.3332,2.3338,2.3356,2.344,2.3443,2.3373,2.3376,2.3378,2.338,0,0,0,0,0,0,0,2.3151,2.3162,2.3274,2.3243,2.3244,2.3236,2.3243,2.3299,2.3314,2.3272,2.327,2.3278,2.3332,2.3351,2.3357,2.3444,2.3373,2.3377,2.3381,2.3383,2.3594,2.3596,0,0,0,0,0,0,2.3146,2.3158,2.3271,2.3276,2.3192,2.3241,2.3248,2.3277,2.3313,2.3316,2.328,2.3276,2.3344,2.3351,2.336,2.3453,2.3378,2.3383,2.3386,2.3591,2.3594,2.3597,0,0,0,0,0,0,2.3143,2.3157,2.3269,2.3216,2.323,2.3246,2.3278,2.328,2.3299,2.332,2.3322,2.3297,2.3342,2.3353,2.3417,2.3455,2.3385,2.339,2.3588,2.3592,2.3596,2.3641,0,0,0,0,0,0,2.3139,2.3156,2.3187,2.3217,2.3233,2.3326,2.3281,2.3283,2.3308,2.3304,2.3336,2.3339,2.3341,2.341,2.3422,2.346,2.3394,2.3585,2.359,2.3595,2.3637,2.3646,2.3655,0,0,0,0,0,2.3134,2.3198,2.3189,2.3203,2.3272,2.3329,2.3337,2.3338,2.3311,2.3342,2.3354,2.3338,2.3449,2.3417,2.3431,2.3471,2.3583,2.3589,2.3594,2.3633,2.3645,2.3655,0,0,0,0,0,0,2.3172,2.3202,2.3192,2.3268,2.3296,2.3324,2.3363,2.3351,2.3387,2.3382,2.3381,2.3388,2.3455,2.3469,2.3433,2.3548,2.3511,2.352,2.3536,2.3547,2.3556,2.3551,2.3398,0,0,0,0,0,2.319,2.3233,2.3257,2.3322,2.3336,2.3347,2.3371,2.3369,2.3398,2.3409,2.3427,2.3455,2.3496,2.3523,2.3562,2.3639,2.3644,2.3673,2.3682,2.3689,2.3697,2.3736,2.3748,2.3617,2.3617,2.3616,0,0,2.3226,2.3248,2.3275,2.333,2.3351,2.3395,2.3357,2.3406,2.3438,2.3417,2.3478,2.3492,2.3523,2.3594,2.3626,2.3608,2.3734,2.3697,2.3703,2.3706,2.3743,2.3755,2.3766,2.3621,2.362,2.3619,0,0,2.3314,2.3336,2.3391,2.3413,2.3445,2.3451,2.3464,2.3493,2.3501,2.3563,2.3547,2.3585,2.3656,2.3678,2.3698,2.3792,2.3777,2.3805,2.3852,2.389,2.39,2.3909,2.394,2.3951,2.3812,2.3812,2.3812,0,2.3355,2.3422,2.3421,2.347,2.3493,2.3476,2.353,2.3551,2.3595,2.3611,2.359,2.3677,2.3697,2.3771,2.3793,2.3811,2.3824,2.3801,2.3899,2.3908,2.3916,2.3946,2.3958,2.3815,2.3815,2.3815,2.3814,0,2.3469,2.3515,2.3555,2.3596,2.3625,2.3677,2.3682,2.3711,2.3706,2.3714,2.3775,2.3798,2.384,2.3858,2.3854,2.393,2.3918,2.3898,2.3861,2.3932,2.3959,2.3971,2.3819,2.3818,2.3818,2.3817,0,0,2.3584,2.3623,2.3637,2.3654,2.3688,2.3723,2.3773,2.3813,2.3836,2.3866,2.3907,2.3966,2.3947,2.397,2.3968,2.4002,2.4071,2.3978,2.3978,2.3992,2.4154,2.4167,2.418,2.4062,2.4064,2.4066,2.415,0,2.3673,2.3761,2.376,2.3841,2.3882,2.3864,2.3907,2.3932,2.394,2.3975,2.3985,2.4026,2.3999,2.4012,2.4045,2.4056,2.4103,2.405,2.4098,2.41,2.4089,2.4195,2.4209,2.4288,2.4161,2.4163,2.4164,0,2.3789,2.3821,2.3905,2.393,2.3947,2.3986,2.4021,2.4056,2.4082,2.4086,2.411,2.4103,2.4152,2.4114,2.418,2.4144,2.4164,2.4172,2.4175,2.4178,2.4135,2.4199,2.4313,2.4324,2.4182,2.418,2.4179,0,2.3861,2.3926,2.3984,2.4,2.403,2.4057,2.4071,2.4095,2.4119,2.415,2.4164,2.4201,2.422,2.4248,2.425,2.4223,2.4316,2.4279,2.4318,2.4318,2.4338,2.4336,2.4455,2.4354,2.4354,2.4353,2.4353,0,2.3959,2.4011,2.4016,2.4052,2.4108,2.4107,2.4163,2.4174,2.4195,2.4231,2.4219,2.4254,2.4254,2.4289,2.4291,2.4344,2.4353,2.4356,2.4356,2.4356,2.4356,2.4368,2.4362,2.4357,2.4356,2.4355,2.4355,0,2.4049,2.4055,2.4117,2.414,2.4147,2.4188,2.4207,2.424,2.4247,2.4293,2.4303,2.4314,2.4354,2.4358,2.4405,2.4406,2.4469,2.4464,2.446,2.4458,2.4497,2.4492,2.4626,2.4642,2.4532,2.4534,2.4534,0,2.4111,2.415,2.4177,2.42,2.4215,2.4253,2.4276,2.4276,2.43,2.4331,2.436,2.4399,2.4429,2.4493,2.4504,2.4539,2.4533,2.4578,2.4539,2.4537,2.4531,2.4528,2.453,2.4585,2.4586,2.4587,2.4588,0,2.4218,2.4218,2.4252,2.4287,2.4315,2.4342,2.4367,2.4387,2.4389,2.4417,2.4457,2.4481,2.4528,2.4565,2.4599,2.4612,2.46,2.46,2.4611,2.4611,2.4606,2.4606,2.4478,2.4597,2.4596,2.4595,2.4595,2.4594,2.4294,2.4326,2.435,2.4387,2.4406,2.443,2.4461,2.4471,2.4504,2.4542,2.4539,2.4583,2.4606,2.465,2.4665,2.4698,2.4684,2.47,2.4703,2.4707,2.4709,2.4602,2.4705,2.4705,2.4704,2.4704,2.4704,0,2.4398,2.4412,2.4446,2.4482,2.451,2.4497,2.4523,2.4548,2.4586,2.4609,2.4639,2.4683,2.4719,2.4732,2.4766,2.479,2.4785,2.4799,2.4796,2.4799,2.4722,2.4708,2.4802,2.4802,2.4802,2.4802,2.4802,2.4802,2.4456,2.4509,2.4512,2.4574,2.4587,2.463,2.4646,2.4666,2.4684,2.4734,2.4763,2.4772,2.479,2.4825,2.4856,2.4859,2.4871,2.4887,2.4887,2.4815,2.4805,2.4795,2.4782,2.489,2.489,2.4961,2.4962,2.4962]},{"header":{"parameterUnit":"m.s-1","parameterCategory":1,"la1":30.2991,"la2":30.254,"lo1":-89.0895,"lo2":-89.0444,"dy":0.0017,"dx":0.0017,"nx":28,"ny":28,"refTime":"2025-06-21T03:00:00:Z","depth":0,"parameterNumber":3,"parameterNumberName":"V-component_of_WINDS"},"data":[0,0,0,0,0,0,0,0,0,0,0,0,0,0,0,0,0,0,0,0,0,0,0,0,0,0,0,0,0,0,0,0,0,0,0,0,0,0,0,0,0,0,0,0,0,0,0,0,0,0,0,0,0,0,0,0,0,0,3.093,3.0931,0,3.1009,3.101,3.1011,3.0992,3.0991,3.0989,3.0988,3.1064,3.1067,3.107,0,0,0,0,0,0,0,0,0,0,0,0,0,3.0758,3.0762,3.093,3.0931,3.0932,3.1009,3.101,3.1011,3.0993,3.0991,3.0989,3.0987,3.1062,3.1066,3.107,0,0,0,0,0,0,0,0,0,0,0,0,0,3.0834,3.0763,3.093,3.0933,3.0934,3.1009,3.101,3.1011,3.0993,3.0991,3.0989,3.0986,3.1061,3.1066,3.1071,3.1147,0,0,3.1087,3.1089,0,0,0,0,0,0,0,0,3.083,3.0841,3.0931,3.0933,3.0934,3.0989,3.0977,3.1057,3.0994,3.097,3.0988,3.0985,3.104,3.1047,3.1066,3.1151,3.1154,3.1087,3.109,3.1092,3.1094,0,0,0,0,0,0,0,3.0825,3.0837,3.0961,3.0933,3.0934,3.0928,3.0936,3.0992,3.1016,3.0972,3.0971,3.0981,3.104,3.1061,3.1068,3.1155,3.1087,3.1091,3.1095,3.1097,3.1302,3.1305,0,0,0,0,0,0,3.0819,3.0833,3.0959,3.0964,3.0876,3.0933,3.0942,3.0973,3.1016,3.102,3.0983,3.098,3.1054,3.1062,3.107,3.116,3.1092,3.1097,3.11,3.13,3.1303,3.1305,0,0,0,0,0,0,3.0816,3.0831,3.0956,3.0898,3.0914,3.0938,3.0973,3.0976,3.0997,3.1024,3.1028,3.1,3.1052,3.1063,3.1128,3.1163,3.1099,3.1104,3.1297,3.1301,3.1304,3.1342,0,0,0,0,0,0,3.0811,3.083,3.086,3.0899,3.0917,3.1014,3.0975,3.0979,3.1006,3.1003,3.1041,3.1045,3.1051,3.112,3.1133,3.1169,3.1108,3.1294,3.1299,3.1303,3.1338,3.1346,3.1354,0,0,0,0,0,3.0805,3.0867,3.0862,3.0877,3.0956,3.1016,3.1026,3.1033,3.1009,3.1039,3.1056,3.1044,3.1157,3.1127,3.1141,3.1179,3.1292,3.1297,3.1303,3.1334,3.1345,3.1354,0,0,0,0,0,0,3.0831,3.0873,3.0867,3.0945,3.0977,3.1013,3.1051,3.1044,3.1083,3.1078,3.1084,3.1092,3.1158,3.1175,3.1141,3.1253,3.1221,3.1229,3.124,3.125,3.1258,3.1252,3.1112,0,0,0,0,0,3.0846,3.0893,3.0926,3.0991,3.1008,3.1027,3.1053,3.1056,3.1089,3.1102,3.1124,3.1155,3.1197,3.1224,3.1265,3.134,3.1347,3.1373,3.1381,3.1387,3.1394,3.1433,3.1444,3.1323,3.1323,3.1323,0,0,3.0877,3.0906,3.0935,3.0997,3.1023,3.1069,3.1038,3.1089,3.1123,3.1109,3.1171,3.1188,3.1223,3.1293,3.1324,3.1309,3.1429,3.1394,3.1399,3.1403,3.1439,3.1451,3.1461,3.1327,3.1326,3.1326,0,0,3.0957,3.0985,3.1041,3.1067,3.1106,3.1118,3.1131,3.1168,3.1179,3.1242,3.1232,3.1271,3.1344,3.1369,3.1391,3.1478,3.1468,3.1491,3.1533,3.157,3.158,3.1588,3.1618,3.1628,3.1498,3.1498,3.1498,0,3.099,3.1062,3.107,3.1122,3.1148,3.1139,3.1194,3.1218,3.1268,3.1286,3.1268,3.1358,3.1381,3.1455,3.1476,3.1495,3.1509,3.1487,3.1578,3.1587,3.1595,3.1622,3.1634,3.1501,3.15,3.15,3.15,0,3.11,3.1149,3.1189,3.1239,3.127,3.1323,3.1337,3.1367,3.1366,3.1379,3.1441,3.1468,3.1513,3.1531,3.1531,3.1605,3.1593,3.1577,3.1544,3.1609,3.1635,3.1646,3.1504,3.1503,3.1503,3.1502,0,0,3.1199,3.1251,3.1266,3.1287,3.1329,3.1366,3.1418,3.1463,3.1487,3.1521,3.1563,3.1625,3.1609,3.1634,3.1636,3.1669,3.1734,3.1649,3.1649,3.1662,3.1814,3.1825,3.1838,3.1728,3.173,3.1731,3.181,0,3.1281,3.1374,3.1382,3.1464,3.1509,3.15,3.1544,3.1573,3.1586,3.1624,3.1637,3.168,3.1658,3.1672,3.1705,3.1719,3.1764,3.1714,3.1764,3.1766,3.1755,3.1852,3.1864,3.1938,3.1821,3.1823,3.1824,0,3.1391,3.1429,3.1516,3.155,3.1568,3.1609,3.1649,3.1686,3.1718,3.1725,3.1752,3.1749,3.1799,3.1765,3.1833,3.1799,3.1819,3.1829,3.1832,3.1836,3.1798,3.1856,3.1961,3.1972,3.1841,3.1839,3.1838,0,3.1452,3.1525,3.1586,3.1605,3.1646,3.1674,3.1692,3.1722,3.1748,3.1783,3.1799,3.1839,3.1861,3.189,3.1897,3.1872,3.1964,3.1931,3.1969,3.1969,3.1988,3.1987,3.2096,3.2004,3.2004,3.2003,3.2003,0,3.1543,3.1596,3.1614,3.1652,3.171,3.1717,3.1774,3.179,3.1816,3.1855,3.1849,3.1885,3.1892,3.1929,3.1935,3.1988,3.1998,3.2004,3.2004,3.2004,3.2003,3.2016,3.2011,3.2006,3.2006,3.2005,3.2005,0,3.1621,3.1636,3.1701,3.1735,3.1745,3.1786,3.1814,3.1848,3.186,3.1909,3.192,3.1938,3.1981,3.1991,3.2042,3.2045,3.2108,3.2105,3.2098,3.2097,3.2134,3.213,3.2255,3.2271,3.217,3.2171,3.2171,0,3.1677,3.1718,3.1756,3.1782,3.1802,3.1844,3.187,3.1878,3.1906,3.1944,3.1973,3.2015,3.2049,3.2117,3.2134,3.2171,3.2168,3.2209,3.2173,3.217,3.2166,3.2163,3.2166,3.2215,3.2216,3.2217,3.2218,0,3.1775,3.178,3.1819,3.1861,3.1893,3.1925,3.1956,3.1977,3.1989,3.2019,3.2064,3.209,3.2142,3.2183,3.2221,3.2237,3.2228,3.2229,3.224,3.2239,3.2232,3.2234,3.2115,3.2226,3.2225,3.2225,3.2224,3.2224,3.1843,3.1878,3.191,3.1953,3.1977,3.2006,3.204,3.2056,3.2093,3.2137,3.2139,3.2186,3.2214,3.2264,3.2282,3.2318,3.2305,3.2321,3.2324,3.2328,3.233,3.2228,3.2325,3.2325,3.2325,3.2324,3.2324,0,3.1938,3.1958,3.1998,3.2042,3.2075,3.2067,3.21,3.2127,3.217,3.2198,3.2231,3.2281,3.232,3.2339,3.2377,3.2402,3.2399,3.2411,3.2409,3.2412,3.234,3.2327,3.2413,3.2413,3.2413,3.2413,3.2413,3.2413,3.1992,3.205,3.2058,3.2127,3.2146,3.2194,3.2213,3.2239,3.2261,3.2317,3.235,3.2363,3.2386,3.2426,3.246,3.2465,3.2478,3.2492,3.2495,3.2427,3.2418,3.2409,3.2396,3.2496,3.2496,3.2563,3.2564,3.2564]}]]